Location: Seattle
(47.6064°N, 122.3308°W)
Time: 04:01:46
(UTC-08:00)

Explorer 7 - All Passes

Search period start: 30 November 2020 00:00
Search period end: 10 December 2020 00:00
Orbit: 484 x 678 km, 50.3° (Epoch: 29 November)

Date Brightness Start Highest point End Pass type
(mag) Time Alt. Az. Time Alt. Az. Time Alt. Az.
30 Nov - 01:21:08 10° SW 01:25:29 40° SE 01:29:36 10° ENE night (unlit)
30 Nov - 03:01:22 10° WSW 03:05:54 76° NNW 03:10:10 10° ENE visible
30 Nov - 04:42:23 10° WNW 04:46:43 60° N 04:50:47 10° E visible
30 Nov - 06:23:10 10° WNW 06:27:20 69° SSW 06:31:16 10° ESE visible
30 Nov - 08:04:38 10° W 08:07:14 17° SW 08:09:46 10° S daylight
30 Nov - 23:47:27 10° SSE 23:50:05 15° SE 23:52:39 10° E night (unlit)
01 Dec - 01:25:27 10° SW 01:30:01 55° SSE 01:34:20 10° ENE night (unlit)
01 Dec - 03:06:05 10° W 03:10:36 66° N 03:14:49 10° ENE visible
01 Dec - 04:47:05 10° WNW 04:51:26 66° N 04:55:30 10° E visible
01 Dec - 06:27:51 10° WNW 06:31:55 49° SSW 06:35:44 10° SE visible
01 Dec - 08:10:45 10° WSW 08:11:33 10° SW 08:12:21 10° SW daylight
01 Dec - 23:50:50 10° S 23:54:28 22° SE 23:57:59 10° E night (unlit)
02 Dec - 01:29:57 10° WSW 01:34:37 74° SSE 01:39:00 10° ENE night (unlit)
02 Dec - 03:10:49 10° W 03:15:19 61° N 03:19:31 10° ENE visible
02 Dec - 04:51:45 10° WNW 04:56:08 78° NNE 05:00:12 10° ESE visible
02 Dec - 06:32:37 10° W 06:36:25 34° SW 06:40:00 10° SSE visible
02 Dec - 23:54:42 10° SSW 23:58:54 32° SE 00:02:56 10° E night (unlit)
03 Dec - 01:34:32 10° WSW 01:39:14 87° NNW 01:43:39 10° ENE night (unlit)
03 Dec - 03:15:34 10° W 03:20:02 60° N 03:24:14 10° E visible
03 Dec - 04:56:25 10° WNW 05:00:47 85° SSW 05:04:51 10° ESE visible
03 Dec - 06:37:31 10° W 06:40:50 23° SW 06:44:01 10° SSE visible
03 Dec - 22:22:15 10° SSE 22:23:37 11° SE 22:24:58 10° ESE night (unlit)
03 Dec - 23:58:52 10° SW 00:03:24 45° SSE 00:07:44 10° ENE night (unlit)
04 Dec - 01:39:14 10° W 01:43:54 74° NNW 01:48:17 10° ENE night (unlit)
04 Dec - 03:20:16 10° WNW 03:24:45 62° N 03:28:57 10° E visible
04 Dec - 05:01:04 10° WNW 05:05:22 64° SSW 05:09:24 10° SE visible
04 Dec - 06:42:43 10° W 06:45:12 15° SW 06:47:36 10° S visible
04 Dec - 22:24:49 10° S 22:27:57 17° SE 22:31:00 10° E night (unlit)
05 Dec - 00:03:14 10° SW 00:07:57 61° SSE 00:12:26 10° ENE night (unlit)
05 Dec - 01:43:57 10° W 01:48:35 65° N 01:52:57 10° ENE night (unlit)
05 Dec - 03:24:58 10° WNW 03:29:27 70° NNE 03:33:40 10° E visible
05 Dec - 05:05:46 10° WNW 05:09:54 45° SSW 05:13:48 10° SE visible
05 Dec - 22:28:24 10° SSW 22:32:20 25° SE 22:36:09 10° E night (unlit)
06 Dec - 00:07:45 10° WSW 00:12:32 80° SSE 00:17:05 10° ENE night (unlit)
06 Dec - 01:48:41 10° W 01:53:18 61° N 01:57:38 10° ENE night (unlit)
06 Dec - 03:29:36 10° WNW 03:34:08 82° NNE 03:38:20 10° ESE visible
06 Dec - 05:10:32 10° W 05:14:23 32° SW 05:18:00 10° SSE visible
06 Dec - 22:32:22 10° SSW 22:36:47 36° SE 22:41:02 10° ENE night (unlit)
07 Dec - 00:12:22 10° WSW 00:17:10 83° NNW 00:21:43 10° ENE night (unlit)
07 Dec - 01:53:24 10° W 01:58:01 61° N 02:02:21 10° E night (unlit)
07 Dec - 03:34:15 10° WNW 03:38:45 79° SSW 03:42:57 10° ESE visible
07 Dec - 05:15:28 10° W 05:18:46 22° SW 05:21:56 10° S visible
07 Dec - 20:59:14 10° SSE 21:01:26 13° SE 21:03:36 10° ESE night (unlit)
07 Dec - 22:36:35 10° SW 22:41:16 49° SSE 22:45:47 10° ENE night (unlit)
08 Dec - 00:17:03 10° W 00:21:49 71° NNW 00:26:21 10° ENE night (unlit)
08 Dec - 01:58:06 10° WNW 02:02:43 65° N 02:07:03 10° E night (unlit)
08 Dec - 03:38:54 10° WNW 03:43:20 59° SSW 03:47:27 10° SE visible
08 Dec - 05:20:46 10° W 05:23:06 14° SW 05:25:22 10° SSW visible
08 Dec - 21:02:17 10° S 21:05:45 20° SE 21:09:10 10° E night (unlit)
08 Dec - 22:40:59 10° SW 22:45:48 67° SSE 22:50:26 10° ENE night (unlit)
09 Dec - 00:21:46 10° W 00:26:31 64° N 00:31:01 10° ENE night (unlit)
09 Dec - 02:02:46 10° WNW 02:07:25 73° NNE 02:11:45 10° E night (unlit)
09 Dec - 03:43:36 10° WNW 03:47:50 42° SW 03:51:48 10° SE visible
09 Dec - 21:05:59 10° SSW 21:10:08 28° SE 21:14:12 10° E night (unlit)
09 Dec - 22:45:32 10° WSW 22:50:24 85° SSE 22:55:05 10° ENE night (unlit)
